Location: Bonny Doon Airfield
(37.0704°N, 122.1252°W)
Time: 09:33:46
(UTC-08:00)

Vanguard 1 Rocket - Pass Details

Date: 30 October 2017
Orbit: 655 x 4222 km, 34.3° (Epoch: 16 November)

Event Time Altitude Azimuth Distance (km) Brightness Sun altitude
Rises 11:15:58 0° 274° (W) 3,723 10.3 34.1°
Reaches altitude 10° 11:19:48 10° 255° (WSW) 2,392 9.5 34.5°
Maximum altitude 11:23:05 17° 215° (SW) 1,747 9.4 34.8°
Drops below altitude 10° 11:25:59 10° 174° (S) 2,057 10.4 35.0°
Sets 11:28:55 0° 151° (SSE) 2,972 11.1 35.3°
